Tracking 19906 objects as of 24-Oct-2019
HD Live streaming from Space Station
objects crossing your sky now

SL-12 R/B(2)

Track SL-12 R/B(2) now!


NORAD ID: 17125
Int'l Code: 1986-090D
Perigee: 35,741.5 km
Apogee: 35,807.3 km
Inclination: 13.9 °
Period: 1,435.1 minutes
Semi major axis: 42145 km
RCS: 1.5849 m2 (large)
Launch date: November 18, 1986
Source: Commonwealth of Independent States (former USSR) (CIS)
Launch site: TYURATAM MISSILE AND SPACE COMPLEX (TTMTR)

Note: This is a ROCKET BODY
aabbcc
Your satellite tracking list
Your tracking list is empty




NASA's NSSDC Master Catalog

Two Line Element Set (TLE):
1 17125U 86090D   19295.76300941 +.00000123 +00000-0 +00000-0 0  9991
2 17125 013.8505 342.3325 0007797 101.9573 258.1289 01.00340861120504
Source of the keplerian elements: AFSPC